カタログに戻る

STARLINK-6338

運用中通信VLEO
NORAD 57364·PAYLOAD·🇺🇸 United States

打ち上げ Jul 16, 2023 から Cape Canaveral Space Force Station

Loading…

次のパス (今後24時間)

TLE

最新Source: CelesTrak SupGP

元期: Sep 14, 2026, 22:09 UTC

1 57364C 23099AN  26257.92340278  .00035306  00000+0  12791-2 0  2570
2 57364  43.0003 252.7706 0001522 263.5377  62.3955 15.27552606    19

AllMySatでSTARLINK-6338をリアルタイム追跡

Download on the App Store